Coeur D'Alene - Pappy Boyington Field Coeur d'Alene US
ICAO: KCOE
IATA: COE
Category: Medium
Scheduled Services: No

Elevation: 2320 ft
TransAlt. 18000 ft.

Airport Communications:
SPOKANE APP/DEP:132.1
AWOS 3:135.075
SEATTLE CNTR:123.95
BOISE RDO:122.05
CTAF/UNICOM:122.8

KCOE Zoom In..

If you have problems with the map follow the link
https://www.worldairports.se/pages/airport.php?
ICAO=KCOE

Runways:

(A) RW 02 length 5400 ft width 75 ft
---- / hdg 13

(B) RW 06 length 7400 ft width 100 ft
ILS 110.70 / hdg 51

(C) RW 20 length 5400 ft width 75 ft
---- / hdg 193

(D) RW 24 length 7400 ft width 100 ft
---- / hdg 231

Location; KCOE
Day. 14 / Time. 20.56 Zulu
* Altimeter: 29.84
* Temperature: 02° c. 35.6°f.
* Wind from: 040° Speed 07 kn.
Dewpoint: -01° c.
Visibility: 10 Statute Miles.
Clouds: Clear (automated report).

KCOE 142056Z AUTO 04007KT 10SM CLR 02/M01 A2984 RMK AO2 SLP140 T00171011 56036 FZRANO


Wind From 040°
Speed 07 kn.

 
 
jpsmedia.com for Web Design worldairports.se 2018   terms of use